Regional Weather Roundup
Issued by NWS Wakefield, VA

Home | Current Version | Previous Version | Text Only | Print | Product List | Glossary On
Versions: 1 2 3 4 5 6 7 8 9 10 11 12 13 14 15 16 17 18 19 20 21 22 23 24 25 26 27 28 29 30 31 32 33 34 35 36 37 38 39 40 41 42 43 44 45 46 47 48 49 50
000
ASUS41 KAKQ 211514
RWRAKQ

REGIONAL WEATHER ROUNDUP
NATIONAL WEATHER SERVICE WAKEFIELD VA
1100 AM EDT TUE APR 21 2015

Note: "fair" indicates few or no clouds below 12,000 feet with no
significant weather and/or obstructions to visibility. * = Denotes
station may not report precipitation (e.g., rain,snow,etc.),
thunder or fog.

VAZ042-051-052>054-056-211600-
NORTHERN VIRGINIA

CITY           SKY/WX    TMP DP  RH WIND       PRES   REMARKS
WASH NATIONAL  MOSUNNY   64  35  34 NW20G30   29.80R
DULLES         MOSUNNY   59  32  36 W17G31    29.80R
FORT BELVOIR   SUNNY     63  34  34 W12G17    29.79R
QUANTICO       MOSUNNY   64  34  32 NW15G30   29.81R
FREDERICKSBRG* SUNNY     64  33  31 W17G23    29.80S
STAFFORD*      MOSUNNY   61  33  35 W10       29.84S
WARRENTON      SUNNY     63  35  34 W13G22    29.80R
CULPEPER*      SUNNY     63  36  36 NW10      29.81R
MANASSAS*      MOSUNNY   63  36  36 NW10G20   29.80R
LEESBURG*      MOSUNNY   59  34  38 W13G22    29.82R
WINCHESTER     MOSUNNY   55  21  26 W13G20    29.80R
FRONT ROYAL*   PTSUNNY   55  32  41 CALM      29.80S
LURAY*         FAIR      59  32  36 W7G16     29.81S
$$

VAZ048-049-060>072-079>083-211600-
CENTRAL AND SOUTH CENTRAL VIRGINIA

CITY           SKY/WX    TMP DP  RH WIND       PRES   REMARKS
RICHMOND       MOSUNNY   66  32  28 W21       29.82S
CHESTERFIELD*  NOT AVBL
PETERSBURG*    SUNNY     66  32  28 W12G22    29.85R
HANOVER        SUNNY     64  34  32 NW14G22   29.83S
TAPPAHANNOCK*  SUNNY     65  26  23 NW14      29.81S
QUINTON*       FAIR      64  36  34 W15G21    29.82S
CHARLOTTSVILLE SUNNY     60  27  28 W8G21     29.82R
GORDONSVILLE*  FAIR      60  29  30 SW7G20    29.81S
ORANGE*        SUNNY     61  32  33 W12G18    29.83S
LOUISA*        SUNNY     63  32  31 W12G22    29.81S
BUMPASS*       FAIR      62  32  32 MISG      29.82S
FARMVILLE*     SUNNY     64  28  26 W12G20    29.84S
CREWE*         FAIR      63  35  34 W10G18    29.85R
FORT PICKETT*  FAIR      63  39  41 W10       29.85R
CHASE CITY*    FAIR      63  38  39 W9G18     29.88S
CLARKSVILLE*   FAIR      61  37  41 NW9       29.88R
SOUTH HILL*    SUNNY     61  37  40 W9        29.93R
LAWRENCEVILLE* FAIR      62  42  47 W10       29.85S
EMPORIA*       SUNNY     63  41  45 W9G16     29.87R
$$

VAZ088>098-211600-
SOUTHEAST VIRGINIA

CITY           SKY/WX    TMP DP  RH WIND       PRES   REMARKS
NORFOLK        SUNNY     67  42  40 N12       29.81R
VIRGINIA BEACH MOSUNNY   70  47  43 N16       29.80R
NORFOLK NAVAL  MOSUNNY   70  45  40 W15G21    29.83R
WEST POINT*    SUNNY     69  31  24 W17G23    29.82S
SALUDA*        FAIR      65  38  36 NW13G21   29.80S
NEWPORT NEWS   SUNNY     69  43  38 W13G20    29.81S
LANGLEY AFB    SUNNY     66  45  45 W13       29.80R
FORT EUSTIS    SUNNY     66  44  45 NW14      29.80R
WILLIAMSBURG*  SUNNY     70  45  40 NW13G22   29.82S
HR EXEC AP*    FAIR      68  46  45 NW7       29.84R
FRANKLIN*      SUNNY    N/A N/A N/A NW10      29.84S
WAKEFIELD      SUNNY     67  36  31 NW9G18    29.83S
$$

VAZ020-022-025-037-045-211600-
WEST CENTRAL AND SOUTHWEST VIRGINIA

CITY           SKY/WX    TMP DP  RH WIND       PRES   REMARKS
STAUNTON*      SUNNY     56  25  30 W12G21    29.84S
WAYNESBORO*    FAIR      55  31  39 W10G21    29.84R
HOT SPRINGS VA SUNNY     43  25  47 W20G28    29.81R
LYNCHBURG      SUNNY     58  29  33 W12G20    29.88R
DANVILLE       MOSUNNY   61  37  41 W13G18    29.90R
SOUTH BOSTON*  PTSUNNY   61  38  42 W7        29.89R
MARTINSVILLE   MOSUNNY   61  31  32 W12G17    29.93S
ROANOKE        MOSUNNY   57  31  37 W16G24    29.90R
BLACKSBURG     SUNNY     51  27  40 W13G23    29.92R
DUBLIN*        MOSUNNY   54  31  41 W14G20    29.91S
MARION*        SUNNY     52  28  39 W24G33    29.92S
HILLSVILLE*    SUNNY     49  30  47 W12G23    29.91R
RICHLANDS*     FAIR      49  26  41 W17G26    29.92R
WISE*          MOSUNNY   50  28  43 SW18G25   29.94S
ABINGDON*      MOSUNNY   54  30  39 W9G18     29.94S
$$

MDZ021>025-VAZ099-100-211600-
SOUTHERN MARYLAND AND THE DELMARVA PENINSULA

CITY           SKY/WX    TMP DP  RH WIND       PRES   REMARKS
PATUXENT RIVER MOSUNNY   64  35  34 W20G28    29.79R
BAY BRIDGE APT   N/A    N/A N/A N/A W16G28    29.78S
LEONARDTOWN    SUNNY     61  32  33 W18G26    29.81R
DOVER          SUNNY     61  38  42 W18G38    29.71R
GEORGETOWN     SUNNY     62  35  36 W12G22    29.76R
EASTON         SUNNY     63  37  39 NW17G29   29.81R
CAMBRIDGE      SUNNY     63  34  34 W14G20    29.78R
SALISBURY      MOSUNNY   62  36  37 NW17G30   29.77R
OCEAN CITY     SUNNY     63  37  38 NW18G29   29.76S
WALLOPS ISLAND MOSUNNY   64  37  36 NW18G25   29.79R
ACCOMACK*      SUNNY     63  41  45 NW17      29.80S
$$

NCZ012>017-030>032-211600-
NORTH CENTRAL AND EASTERN NORTH CAROLINA

CITY           SKY/WX    TMP DP  RH WIND       PRES   REMARKS
ROANOKE RAPIDS FAIR      63  43  48 NW8       29.88R
RALEIGH        MOSUNNY   63  41  44 NW9G18    29.91R
ELIZABETH CITY SUNNY     68  50  52 W10G20    29.83R
AHOSKIE*       SUNNY     65  43  46 NW5       29.86R
EDENTON*       SUNNY     67  48  50 N10       29.85R
CURRITUCK*     SUNNY     68  47  48 W8G17     29.82R
KILL DEVIL HLS SUNNY     68  53  58 W9        29.82R
MANTEO         SUNNY     67  52  57 NW9       29.84R
CAPE HATTERAS  SUNNY     67  49  52 NW10G17   29.85R
TARBORO*       FAIR      66  45  46 W8        29.89R
GOLDSBORO      SUNNY     67  39  35 NW13G21   29.87R
WASHINGTON     SUNNY     65  44  45 N12       29.87R
GREENVILLE     SUNNY     66  43  42 N9G17     29.90R
NEW BERN       SUNNY     69  46  43 N12       29.88R
WILMINGTON     SUNNY     71  45  39 NW10      29.90R
$$

VAZ048-211600-
ELSEWHERE

CITY           SKY/WX    TMP DP  RH WIND       PRES   REMARKS
HARRISBURG PA  MOSUNNY   57  31  37 W28G35    29.74R
BALTIMORE      MOSUNNY   60  32  34 W18G26    29.77R
ANNAPOLIS      SUNNY     60  28  29 W16G31    29.77R
ANDREWS AFB    MOSUNNY   60  33  36 W20G30    29.78R
PHILADELPHIA   MOSUNNY   62  36  37 W20G32    29.73R
HENDERSON NC   MOSUNNY   62  39  42 NW10      29.89R
GREENSBORO     MOSUNNY   60  36  40 W14G24    29.91R
ROCKY MOUNT    SUNNY     65  44  46 N12       29.89R
$$

VAZ100-211600-
MARINE

STATION/POSITION TIME  TEMP    WIND        PRES    WAVE   SWELL
                       AIR SEA DIR/SP/G            HT/PER HT/PER
                 (UTC) (F)     (DEG/KT/KT) (MB)    (FT/S) (FT/S)
BRANDYWINE LGT   1400   57 52  310/ 17/ 19 1007.1R
CAPE MAY NJ      1400   58 56  300/ 14/ 17 1006.6R
LEWES DE         1400   59 51  310/ 20/ 25 1007.1R
15NM E FENWICK I 1450   53 47              1007.1R   6/ 9
OCEAN-CITY-INLET 1400   60 50  330/ 17/ 24 1007.2R
WACHAPREAGUE VA  1400   62 63  320/  8/ 14 1008.7R
THOMAS POINT MD  1500   58 54  300/ 20/ 21 1008.6R
GOOSES REEF MD   1500   59 56  320/ 14/ 19   N/A     1/ 3
COVE POINT MD    1400   59     330/ 15/ 19 1008.2R
SOLOMONS ISLAND  1400      56                N/A
BISHOPS HEAD MD  1400   60 62  310/ 18/ 20 1008.3R
PINEY POINT MD   1400          320/ 15/ 18   N/A
CAMBRIDGE MD     1400   59 60  290/ 11/ 20 1008.2R
LEWISETTA VA     1400   62 62              1008.5S
RAPPAHANNOCK LGT 1400          340/ 12/ 13 1009.4R
STINGRAY PT      1500   62 58  300/ 14/ 16 1010.8R   2/ 3
YORK RVR RNG VA  1400   63     320/ 21/ 25 1008.7R
YORKTOWN VA      1400   62 61  320/ 19/ 22 1009.0R
DOMINION TERM VA 1400   63     320/ 14/ 17 1009.2R
KIPTOPEKE VA     1400      63  350/ 13/ 19   N/A
CHES BAY BRIDGE  1400   61 56  330/ 11/ 12 1008.9R
CAPE HENRY VA    1400   59     350/ 12/ 13 1008.0R
CHESAPEAKE LGHT  1400   58     350/ 19/ 20 1009.6R
WILLOUBY STN VA  1400   63     340/ 14/ 15 1009.8R
S CRANEY ISL VA  1400          300/ 12/ 16 1009.2R
CAPE HENRY BUOY  1428      53                N/A     4/13   2/13
1ST LANDING BUOY 1500   59     360/  4/  6 1009.4R   2/ 4
OFFSHORE WE BUOY 1411      49                N/A     4/ 8   3/ 8
64NM E OF VA BCH 1450   57 56  330/ 17/ 19 1008.7R   5/ 8   5/ 8
DUCK PIER NC     1400   65 47  310/ 12/ 17 1008.3R
44056 DUCK FRF   1411      50                N/A     3/13   2/13
OREGON INLET NC  1400   66 67  300/ 14/ 17 1009.6R
HATTERAS NC      1400   67 68  310/ 15/ 18 1009.6R
DIAMOND SHLS NC  1450   68 74  320/ 12/ 14 1010.8R   7/ 7   5/ 7
CAPE LOOKOUT NC  1500   69     320/  8/ 10 1011.1R
$$


USA.gov is the U.S. government's official web portal to all federal, state and local government web resources and services.